This is the latest recevied weather packets stored in our database for station/object OH6LSL. If no packets are shown the sender has not sent any weather packets the latest 10 day(s).
| Time | Temp. | Humidity | Pressure | Rain* | Wind** | Luminosity | Snow |
|---|---|---|---|---|---|---|---|
| 1777250696 | 2.22° C | 58% | 1012.1 hPa | 0 mm | - | 0 W/m² | - |
| 1777245875 | 1.67° C | 51% | 1011.5 hPa | 0 mm | - | 0 W/m² | - |
| 1777245314 | 1.11° C | 52% | 1011.4 hPa | 0 mm | - | 0 W/m² | - |
| 1777242899 | 1.11° C | 53% | 1011.3 hPa | 0 mm | - | 0 W/m² | - |
| 1777241080 | 1.11° C | 55% | 1011.2 hPa | 0 mm | - | 0 W/m² | - |
| 1777237480 | 1.11° C | 57% | 1010.7 hPa | 0 mm | - | 0 W/m² | - |
| 1777235108 | 1.11° C | 61% | 1010.7 hPa | 0 mm | - | 0 W/m² | - |
| 1777233303 | 0.56° C | 63% | 1010.7 hPa | 0 mm | - | 0 W/m² | - |
| 1777231484 | 0.56° C | 65% | 1010.5 hPa | 0 mm | - | 0 W/m² | - |
| 1777230903 | 0.56° C | 66% | 1010.4 hPa | 0 mm | - | 0 W/m² | - |
| 1777230282 | 1.11° C | 66% | 1010.4 hPa | 0 mm | - | 0 W/m² | - |
| 1777229682 | 1.11° C | 66% | 1010.3 hPa | 0 mm | - | 0 W/m² | - |
| 1777228481 | 1.11° C | 67% | 1010.2 hPa | 0 mm | - | 5 W/m² | - |
| 1777226680 | 1.67° C | 61% | 1010 hPa | 0 mm | - | 11 W/m² | - |
| 1777224903 | 2.22° C | 57% | 1009.7 hPa | 0 mm | - | 16 W/m² | - |
| 1777223681 | 2.22° C | 52% | 1009.6 hPa | 0 mm | - | 18 W/m² | - |
| 1777222485 | 2.22° C | 49% | 1009.5 hPa | 0 mm | - | 21 W/m² | - |
| 1777221905 | 2.22° C | 51% | 1009.4 hPa | 0 mm | - | 23 W/m² | - |
| 1777220680 | 2.78° C | 49% | 1009.3 hPa | 0 mm | - | 25 W/m² | - |
| 1777220085 | 2.78° C | 46% | 1009.1 hPa | 0 mm | - | 26 W/m² | - |
| 1777219484 | 2.78° C | 47% | 1009.1 hPa | 0 mm | - | 28 W/m² | - |
| 1777217688 | 2.78° C | 42% | 1009 hPa | 0 mm | - | 32 W/m² | - |
| 1777215872 | 2.78° C | 42% | 1008.6 hPa | 0 mm | - | 53 W/m² | - |
| 1777215294 | 2.78° C | 43% | 1008.6 hPa | 0 mm | - | 91 W/m² | - |
| 1777214712 | 2.78° C | 44% | 1008.6 hPa | 0 mm | - | 88 W/m² | - |
* Rain latest hour (hover to see other rain measurements)
** Current wind speed in m/s (hover to see current wind gust speed)